Home   Weather   Götzis   Past weeks
Flag for Austria

Past Weather in Götzis, Vorarlberg, Austria — Yesterday and Last 2 Weeks

Now
39 °F

Chilly.


Feels Like: 39 °F
Forecast: 49 / 35 °F
Wind: 1 mph from North

Location: Feldkirch

Current Time: Jan 25, 2020 at 4:24:37 pm

Latest Report: Jan 25, 2020 at 2:00 pm


Visibility: N/A

Pressure: 30.22 "Hg

Humidity: 81%

Dew Point: 33 °F

Location of GötzisLocation

Past Weather in Götzis — Graph

°F

Götzis Temperature Yesterday

Maximum temperature yesterday: 38 °F (at 3:00 pm)
Minimum temperature yesterday: 23 °F (at 7:00 am)
Average temperature yesterday: 30 °F

High & Low Weather Summary for the Past Weeks

 TemperatureHumidityPressure
High51 °F (Jan 10, 3:00 pm)99% (Jan 25, 9:00 am)30.89 "Hg (Jan 25, 9:00 am)
Low21 °F (Jan 21, 7:00 am)41% (Jan 17, 2:00 pm)30.11 "Hg (Jan 14, 3:00 pm)
Average34 °F79%30.42 "Hg
* Reported Jan 10 2:00 pm — Jan 25 2:00 pm, Götzis. Weather by CustomWeather, © 2020

Note: Actual official high and low records may vary slightly from our data, if they occured in-between our weather recording intervals... More about our weather records

Götzis Weather History for the Previous 24 Hours

Scroll right to see more
 ConditionsComfort  
Time TempWeatherWind HumidityBarometerVisibility
2:00 pm
Sat, Jan 25
39 °FChilly.1 mph81%30.22 "HgN/A
1:00 pm37 °FChilly.1 mph83%30.24 "HgN/A
12:00 pm38 °FChilly.1 mph84%30.26 "HgN/A
11:00 am34 °FChilly.No wind88%30.27 "HgN/A
10:00 am29 °FPassing clouds.1 mph98%30.29 "Hg9 mi
9:00 am28 °FChilly.No wind99%30.29 "HgN/A
4:00 am30 °FChilly.No wind96%30.27 "HgN/A
3:00 am30 °FChilly.1 mph96%30.28 "HgN/A
2:00 am30 °FChilly.1 mph96%30.28 "HgN/A
1:00 am30 °FChilly.No wind94%30.29 "HgN/A
12:00 am30 °FChilly.No wind92%30.28 "HgN/A
11:00 pm
Fri, Jan 24
30 °FChilly.No wind92%30.29 "HgN/A
9:00 pm30 °FChilly.1 mph92%30.29 "HgN/A
8:00 pm30 °FChilly.1 mph93%30.29 "HgN/A
7:00 pm31 °FChilly.1 mph91%30.30 "HgN/A
6:00 pm32 °FChilly.No wind88%30.29 "HgN/A
5:00 pm35 °FChilly.No wind83%30.27 "HgN/A
Weather by CustomWeather, © 2020

See weather overview

Advertising